Hovedside
METAR-TAF:

METAR-TAF

Lufthavner :

Jefferson County International Airport

Port Townsend, Washington, USA

breddegrad: 48-03-14N, lengdegrad: 122-48-38W, høyde over havet: 33 m

Gjeldene værobservasjon

Denne rapporten ble laget for 29 minutter siden, klokken 11:35 UTC
Flau vind
Temperatur 5°C
Luftfuktighet 100%
Trykk 1024 hPa
Sikt: 1.6 km
dis

METAR: K0S9 201135Z AUTO 00000KT 1SM BR 05/05 A3024 RMK AO2

Tid: 05:04 (12:04 UTC)


TAF: fraværende

Værobservasjoner og værvarsel for over 4000 flyplasser (METAR- og TAF-rapporter).

Tilgjengelige stasjoner er representert av de røde og gule prikkene på kartet.

Hold musepekeren over prikken for å se navnet på stasjonen.

Klikk så for å se værobservasjoner og -varsler.

For å forandre kartet kan du klikke på den grønne knappen med svart kryss for å zoome inn, på den grønne knappen med strek for å zoome ut, eller på de grønne pilene for å se tilstøtende kart.


METAR-TAF: